weather.gov     
National Weather Service

Terminal Aerodrome Forecast
NWS Homepage
This page is being discontinued on March 12, 2014.
The same data is available at this site. Please update your bookmarks.
Thank you, and we apologize for the inconvenience.
Please send an email to SR-SRH.Webmaster@noaa.gov with any concerns.


Current Version
Previous Version:    01  02  03  04  05  06  07  08  09  10  11  12  13  14  15  16  17  18  19  20  21  22  23  24  25  26  27  28  29  30  
   31  32  33  34  35  36  37  38  39  
[Printable]
422
FTUS41 KCLE 211100
TAFMFD
TAF
KMFD 211126Z 2112/2212 32009KT 6SM BR OVC007
      TEMPO 2112/2115 3SM -DZ BR OVC005
     FM211500 32011KT 6SM BR SCT008 OVC015
     FM211900 33012G18KT P6SM OVC020
     FM220200 33009KT P6SM OVC018
     FM220800 34007KT 4SM BR OVC015=


U.S. Dept. of Commerce
NOAA National Weather Service
1325 East West Highway
Silver Spring, MD 20910
E-mail: w-nws.webmaster@noaa.gov
Page last modified: May 16, 2007
NATIONAL WEATHER SERVICE: for Safety, for Work, for Fun - FOR LIFE